Regional Weather Roundup
Issued by NWS New Orleans/Baton Rouge, LA

Home | Current Version | Previous Version | Graphics & Text | Print | Product List | Glossary On
Versions: 1 2 3 4 5 6 7 8 9 10 11 12 13 14 15 16 17 18 19 20 21 22 23 24 25 26 27 28 29 30 31 32 33 34 35 36 37 38 39 40 41 42 43 44 45 46 47 48 49 50
076
ASUS44 KLIX 230501
RWRLIX
NEW ORLEANS REGIONAL WEATHER ROUNDUP
NATIONAL WEATHER SERVICE NEW ORLEANS LA
1200 AM CDT SAT AUG 23 2014

NOTE: "FAIR" INDICATES FEW OR NO CLOUDS BELOW 12,000 FEET WITH NO
      SIGNIFICANT WEATHER AND/OR OBSTRUCTIONS TO VISIBILITY.
      SKY/WX - SKY CONDITION AND SIGNIFICANT WEATHER.
      TMP - AIR TEMPERATURE.     DP    - DEWPOINT TEMPERATURE.
      RH  - RELATIVE HUMIDITY.   PRES  - PRESSURE.
      HI  - HEAT INDEX.          WCI   - WIND CHILL INDEX.

*  THESE STATIONS ARE NOT NWS OR FAA STATIONS AND ARE NOT UNDER
   NWS QUALITY CONTROL.

LAZ038-040-048-061>063-065>067-069-230600-
SOUTHEAST LOUISIANA

CITY           SKY/WX    TMP DP  RH WIND       PRES   REMARKS
N.O. AUDUBON     N/A     83  78  83 MISG        N/A
N.O. INTL ARPT CLEAR     83  75  77 SW8       30.03S
N.O. LAKEFRONT CLEAR     86  72  62 SW9       30.03S
N.O. DOWNTOWN*   N/A     84  72  65 CALM      30.04S
SLIDELL        CLEAR     79  75  87 CALM      30.02S
BATON ROUGE    CLEAR     79  75  87 SW5       30.03S
BOOTHVILLE     CLEAR     85  76  74 S7        30.04S
BELLE CHASSE   CLEAR     81  75  82 W3        30.03S
BOGALUSA*        N/A     81  74  81 CALM      30.04S
GALLIANO*      NOT AVBL
NEW ROADS*       N/A     77  76  94 CALM      30.03S
GONZALES*        N/A     80  80  99 CALM      30.03S
HAMMOND*       NOT AVBL
HOUMA*         CLEAR     78  75  90 CALM      30.03F
PORT FOURCHON* CLEAR     86  75  70 SW5       30.05S HX  95

$$

MSZ070-080>082-230600-
SOUTHERN MISSISSIPPI

CITY           SKY/WX    TMP DP  RH WIND       PRES   REMARKS
MCCOMB         CLEAR     78  74  87 CALM      30.04S
GULFPORT       CLEAR     81  75  82 CALM      30.02S
BILOXI         CLEAR     85  77  75 CALM      30.02S HX  95
PASCAGOULA     CLEAR     77  75  93 CALM      30.03R FOG

$$

COASTAL OBSERVATIONS
LAKE AND NEARSHORE STATIONS

STATION/POSITION TIME  TEMP    WIND        PRES    WAVE
                       AIR SEA DIR/SP/G            HT/PER
                 (UTC) (F)     (DEG/KT/KT) (MB)    (FT/S)
PASCAGOULA       0400   87     250/  5/  8 1016.3
WAVELAND YACHT   0400   85     250/  4/  4 1016.2
GRAND ISLE       0400   86 90  210/  3/  4 1017.7
SOUTHWEST PASS   0400   86 88  190/  5/  7 1017.5
NEW CANAL        0400   86 87  220/  4/  7 1017.3
SHELL BEACH      0400   84 83  200/  5/  6 1016.8

OFFSHORE STATIONS

STATION/POSITION TIME  TEMP    WIND        PRES    WAVE
                       AIR SEA DIR/SP/G            HT/PER
                 (UTC) (F)     (DEG/KT/KT) (MB)    (FT/S)
64 S DAUPHIN ISL 0444   86 89  220/  6/  8 1017.1

$$




USA.gov is the U.S. government's official web portal to all federal, state and local government web resources and services.